EW6576 Weather Reports


Display with metric or nautical units.
time (UTC)temp
F
wind
direction
speed
MPH
gust
MPH
rain 1hr
in
rain 24hr
in
rain mn
in
humidity
%
barometer
mb
20200402103755 57 271 1.0 4.0 0.00 0.00 0.00 82 1012.2
20200402103256 57 271 1.0 4.0 0.00 0.00 0.00 82 1012.2
20200402102756 57 271 2.0 6.0 0.00 0.00 0.00 82 1012.2
20200402102250 57 271 2.0 6.0 0.00 0.00 0.00 82 1012.2
20200402101753 57 16 1.0 3.0 0.00 0.00 0.00 81 1012.2
20200402101252 57 16 1.0 3.0 0.00 0.00 0.00 81 1012.2
20200402100753 57 16 2.0 3.0 0.00 0.00 0.00 81 1012.2
20200402100245 57 16 2.0 4.0 0.00 0.00 0.00 80 1012.2
20200402095744 57 16 1.0 4.0 0.00 0.00 0.00 80 1012.2
20200402095245 57 16 2.0 5.0 0.00 0.00 0.00 80 1012.2
20200402094742 57 16 2.0 5.0 0.00 0.00 0.00 79 1012.2
20200402094240 57 16 1.0 4.0 0.00 0.00 0.00 79 1012.2
20200402093738 57 16 2.0 4.0 0.00 0.00 0.00 79 1012.2
20200402093241 57 16 2.0 4.0 0.00 0.00 0.00 79 1012.2
20200402092734 57 17 2.0 4.0 0.00 0.00 0.00 79 1012.2
20200402092232 57 17 2.0 4.0 0.00 0.00 0.00 79 1012.2
20200402091733 57 17 1.0 4.0 0.00 0.00 0.00 80 1012.2
20200402091234 57 17 1.0 4.0 0.00 0.00 0.00 80 1012.2
20200402090730 57 17 2.0 4.0 0.00 0.00 0.00 80 1012.2
20200402090229 57 17 2.0 4.0 0.00 0.00 0.00 80 1012.1
20200402085726 57 17 2.0 5.0 0.00 0.00 0.00 81 1012.1
20200402085228 57 17 3.0 5.0 0.00 0.00 0.00 81 1012.1
20200402084727 57 16 3.0 5.0 0.00 0.00 0.00 81 1012.1
20200402084227 57 15 2.0 5.0 0.00 0.00 0.00 82 1012.1
20200402083725 57 31 2.0 4.0 0.00 0.00 0.00 82 1012.1
20200402083224 57 31 2.0 6.0 0.00 0.00 0.00 82 1012.1
20200402082724 57 31 3.0 6.0 0.00 0.00 0.00 82 1012.0
20200402082226 57 32 3.0 6.0 0.00 0.00 0.00 82 1012.0
20200402081722 57 31 2.0 6.0 0.00 0.00 0.00 82 1012.0
20200402081223 57 26 2.0 5.0 0.00 0.00 0.00 82 1011.9
20200402080725 57 32 2.0 4.0 0.00 0.00 0.00 83 1011.9
20200402080220 57 32 2.0 6.0 0.00 0.00 0.00 83 1011.9
20200402075718 57 32 2.0 6.0 0.00 0.00 0.00 83 1011.9
20200402075219 57 31 2.0 4.0 0.00 0.00 0.00 83 1011.9
20200402074720 57 31 2.0 6.0 0.00 0.00 0.00 83 1011.9
20200402074217 57 31 2.0 6.0 0.00 0.00 0.00 82 1011.9
20200402073717 58 28 2.0 5.0 0.00 0.00 0.00 83 1011.9
20200402073214 58 29 2.0 6.0 0.00 0.00 0.00 83 1011.8
20200402072715 58 29 3.0 8.0 0.00 0.00 0.00 82 1011.8
20200402072215 58 30 3.0 8.0 0.00 0.00 0.00 83 1011.7
20200402071714 58 30 3.0 8.0 0.00 0.00 0.00 83 1011.8
20200402071215 58 22 4.0 8.0 0.00 0.00 0.00 84 1011.7
20200402070713 58 25 4.0 8.0 0.00 0.00 0.00 85 1011.7
20200402070215 58 24 3.0 8.0 0.00 0.00 0.00 84 1011.7
20200402065711 58 17 3.0 7.0 0.00 0.00 0.00 84 1011.7
20200402065210 58 355 2.0 5.0 0.00 0.00 0.00 85 1011.6
20200402064710 58 355 2.0 5.0 0.00 0.00 0.00 85 1011.6
20200402064209 58 350 2.0 5.0 0.00 0.00 0.00 85 1011.6
20200402063707 58 348 2.0 5.0 0.00 0.00 0.00 85 1011.6
20200402063206 58 346 2.0 5.0 0.00 0.00 0.00 85 1011.6
20200402062705 58 28 2.0 5.0 0.00 0.00 0.00 86 1011.5
20200402062202 58 28 2.0 5.0 0.00 0.00 0.00 86 1011.5
20200402061702 58 29 1.0 3.0 0.00 0.00 0.00 86 1011.5
20200402061201 58 32 1.0 4.0 0.00 0.00 0.00 87 1011.5
20200402060701 58 32 1.0 4.0 0.00 0.00 0.00 87 1011.5
20200402060200 58 32 1.0 3.0 0.00 0.00 0.00 87 1011.5
20200402055657 58 32 2.0 4.0 0.00 0.00 0.00 87 1011.5
20200402055156 58 32 3.0 5.0 0.00 0.00 0.00 87 1011.5
20200402054657 58 32 3.0 5.0 0.00 0.00 0.00 87 1011.4
20200402054158 58 32 2.0 5.0 0.00 0.00 0.00 87 1011.4
20200402053655 58 33 2.0 4.0 0.00 0.00 0.00 87 1011.4
20200402053157 58 33 2.0 4.0 0.00 0.00 0.00 87 1011.5
20200402052653 58 34 2.0 5.0 0.00 0.00 0.00 87 1011.4
20200402052151 58 34 1.0 5.0 0.00 0.00 0.00 87 1011.4
20200402051650 58 34 2.0 4.0 0.00 0.00 0.00 87 1011.4
20200402051150 58 34 2.0 4.0 0.00 0.00 0.00 87 1011.3
20200402050649 59 34 1.0 4.0 0.00 0.00 0.00 87 1011.3
20200402050149 58 34 1.0 3.0 0.00 0.00 0.00 87 1011.2
20200402045647 58 34 1.0 3.0 0.00 0.00 0.00 86 1011.2
20200402045143 59 34 1.0 3.0 0.00 0.00 0.00 86 1011.1
20200402044644 59 34 2.0 5.0 0.00 0.00 0.00 86 1011.0
20200402044142 59 34 2.0 5.0 0.00 0.00 0.00 85 1011.0
20200402043643 59 34 2.0 5.0 0.00 0.00 0.00 85 1011.0
20200402043141 59 34 3.0 5.0 0.00 0.00 0.00 84 1011.0
20200402042641 60 35 3.0 6.0 0.00 0.00 0.00 83 1010.9
20200402042141 60 34 3.0 6.0 0.00 0.00 0.00 83 1010.8
20200402041638 60 34 2.0 6.0 0.00 0.00 0.00 83 1010.8
20200402041138 60 34 2.0 5.0 0.00 0.00 0.00 82 1010.8
20200402040639 60 34 2.0 5.0 0.00 0.00 0.00 81 1010.8
20200402040133 61 38 1.0 4.0 0.00 0.00 0.00 81 1010.7
20200402035630 61 38 1.0 4.0 0.00 0.00 0.00 80 1010.6
20200402035129 61 38 2.0 5.0 0.00 0.00 0.00 79 1010.6
20200402034629 61 38 3.0 6.0 0.00 0.00 0.00 78 1010.5
20200402034127 62 38 2.0 6.0 0.00 0.00 0.00 76 1010.5
20200402033625 62 57 2.0 3.0 0.00 0.00 0.00 73 1010.4
20200402033123 62 58 1.0 3.0 0.00 0.00 0.00 72 1010.3
20200402032620 62 58 1.0 3.0 0.00 0.00 0.00 72 1010.3
20200402032120 63 58 1.0 3.0 0.00 0.00 0.00 72 1010.2
20200402031615 63 58 1.0 3.0 0.00 0.00 0.00 71 1010.2
20200402031110 63 58 1.0 3.0 0.00 0.00 0.00 71 1010.1
20200402030609 63 58 2.0 4.0 0.00 0.00 0.00 71 1010.0
20200402030111 63 58 2.0 4.0 0.00 0.00 0.00 71 1010.0
20200402025610 63 58 2.0 3.0 0.00 0.00 0.00 70 1009.8
20200402025109 63 58 2.0 4.0 0.00 0.00 0.00 69 1009.8
20200402024610 63 58 3.0 5.0 0.00 0.00 0.00 69 1009.7
20200402024106 64 58 3.0 6.0 0.00 0.00 0.00 68 1009.6
20200402023607 64 56 3.0 6.0 0.00 0.00 0.00 67 1009.7
20200402023106 64 55 3.0 5.0 0.00 0.00 0.00 68 1009.6
20200402022607 64 55 3.0 6.0 0.00 0.00 0.00 68 1009.6
20200402022105 64 55 3.0 7.0 0.00 0.00 0.00 68 1009.5
20200402021607 64 54 3.0 7.0 0.00 0.00 0.00 67 1009.5
20200402021101 65 39 3.0 6.0 0.00 0.00 0.00 68 1009.4
20200402020602 65 40 3.0 6.0 0.00 0.00 0.00 67 1009.4
20200402020102 65 43 4.0 9.0 0.00 0.00 0.00 65 1009.3
20200402015601 66 55 4.0 9.0 0.00 0.00 0.00 65 1009.3
20200402015102 66 37 5.0 9.0 0.00 0.00 0.00 63 1009.3
20200402014602 66 34 5.0 10.0 0.00 0.00 0.00 64 1009.2
20200402014101 67 70 6.0 10.0 0.00 0.00 0.00 64 1009.3
20200402013555 67 81 5.0 10.0 0.00 0.00 0.00 63 1009.3
20200402013054 67 64 5.0 9.0 0.00 0.00 0.00 62 1009.1
20200402012552 68 55 5.0 10.0 0.00 0.00 0.00 61 1009.1
20200402012100 68 65 6.0 10.0 0.00 0.00 0.00 60 1009.1
20200402011550 69 75 5.0 9.0 0.00 0.00 0.00 59 1009.1
20200402011047 69 54 5.0 10.0 0.00 0.00 0.00 57 1009.0
20200402010548 69 89 5.0 10.0 0.00 0.00 0.00 56 1009.0
20200402010047 70 72 5.0 11.0 0.00 0.00 0.00 54 1009.0
20200402005548 70 34 5.0 11.0 0.00 0.00 0.00 56 1008.9
20200402005045 70 37 5.0 11.0 0.00 0.00 0.00 56 1008.9
20200402004543 71 27 5.0 10.0 0.00 0.00 0.00 55 1008.9
20200402004044 71 46 5.0 11.0 0.00 0.00 0.00 54 1008.8
20200402003542 71 60 6.0 11.0 0.00 0.00 0.00 54 1008.9
20200402003041 71 74 7.0 11.0 0.00 0.00 0.00 54 1008.9
20200402002542 71 19 6.0 11.0 0.00 0.00 0.00 55 1008.8
20200402002041 71 77 5.0 10.0 0.00 0.00 0.00 54 1008.8
20200402001543 71 28 6.0 11.0 0.00 0.00 0.00 56 1008.8
20200402001040 71 78 5.0 11.0 0.00 0.00 0.00 55 1008.7
20200402000542 71 80 5.0 9.0 0.00 0.00 0.00 55 1008.7
20200402000035 71 57 6.0 11.0 0.00 0.00 0.00 55 1008.7
20200401235535 71 32 6.0 11.0 0.00 0.00 0.00 56 1008.6
20200401235034 71 35 5.0 11.0 0.00 0.00 0.00 55 1008.7
20200401234534 72 24 6.0 12.0 0.00 0.00 0.00 55 1008.7
20200401234034 72 12 7.0 13.0 0.00 0.00 0.00 55 1008.6
20200401233534 72 32 7.0 13.0 0.00 0.00 0.00 54 1008.7
20200401233029 72 74 7.0 12.0 0.00 0.00 0.00 55 1008.7
20200401232528 72 65 6.0 12.0 0.00 0.00 0.00 54 1008.7
20200401232029 72 84 6.0 13.0 0.00 0.00 0.00 55 1008.7
20200401231527 72 49 5.0 13.0 0.00 0.00 0.00 55 1008.7
20200401231026 73 57 5.0 12.0 0.00 0.00 0.00 54 1008.6
20200401230526 73 76 7.0 12.0 0.00 0.00 0.00 54 1008.7
20200401230020 73 38 7.0 14.0 0.00 0.00 0.00 54 1008.8
20200401225517 73 75 6.0 13.0 0.00 0.00 0.00 54 1008.7
20200401225016 73 63 6.0 13.0 0.00 0.00 0.00 54 1008.8
20200401224514 73 24 7.0 13.0 0.00 0.00 0.00 54 1008.8
20200401224014 73 14 6.0 13.0 0.00 0.00 0.00 54 1008.7
20200401223508 73 55 6.0 12.0 0.00 0.00 0.00 54 1008.8
20200401223008 73 20 6.0 13.0 0.00 0.00 0.00 54 1008.8
20200401222512 73 34 6.0 13.0 0.00 0.00 0.00 53 1008.8
20200401222008 74 51 6.0 14.0 0.00 0.00 0.00 53 1008.8
20200401221508 74 42 7.0 14.0 0.00 0.00 0.00 52 1008.8
20200401221008 74 95 7.0 13.0 0.00 0.00 0.00 51 1008.8
20200401220501 74 53 8.0 14.0 0.00 0.00 0.00 53 1008.8
20200401220001 73 63 7.0 14.0 0.00 0.00 0.00 53 1008.8
20200401215502 73 0 7.0 12.0 0.00 0.00 0.00 52 1008.8
20200401215002 73 40 6.0 12.0 0.00 0.00 0.00 51 1008.8
20200401214501 73 19 6.0 14.0 0.00 0.00 0.00 50 1008.9
20200401214004 74 59 7.0 17.0 0.00 0.00 0.00 49 1009.0
20200401213456 74 29 7.0 17.0 0.00 0.00 0.00 48 1008.9
20200401212956 74 265 6.0 11.0 0.00 0.00 0.00 48 1009.0
20200401212456 74 78 6.0 11.0 0.00 0.00 0.00 49 1009.0
20200401211956 74 23 5.0 11.0 0.00 0.00 0.00 49 1009.0
20200401211455 74 40 5.0 10.0 0.00 0.00 0.00 50 1009.1
20200401210955 74 13 5.0 12.0 0.00 0.00 0.00 49 1009.1
20200401210452 73 14 5.0 12.0 0.00 0.00 0.00 50 1009.1
20200401205951 74 20 4.0 11.0 0.00 0.00 0.00 50 1009.2
20200401205453 73 47 4.0 10.0 0.00 0.00 0.00 50 1009.2
20200401204950 73 88 5.0 12.0 0.00 0.00 0.00 51 1009.2
20200401204450 73 75 6.0 12.0 0.00 0.00 0.00 51 1009.3
20200401203950 73 64 6.0 12.0 0.00 0.00 0.00 51 1009.3
20200401203446 73 61 6.0 12.0 0.00 0.00 0.00 51 1009.3
20200401202945 74 5 4.0 12.0 0.00 0.00 0.00 50 1009.4
20200401202445 74 74 3.0 9.0 0.00 0.00 0.00 48 1009.4
20200401201945 73 34 4.0 11.0 0.00 0.00 0.00 46 1009.4
20200401201444 73 49 5.0 11.0 0.00 0.00 0.00 46 1009.5
20200401200947 73 66 5.0 10.0 0.00 0.00 0.00 47 1009.6
20200401200447 73 10 5.0 9.0 0.00 0.00 0.00 47 1009.6
20200401195944 73 15 5.0 12.0 0.00 0.00 0.00 47 1009.6
20200401195441 73 5 5.0 12.0 0.00 0.00 0.00 47 1009.6
20200401194941 73 33 4.0 10.0 0.00 0.00 0.00 46 1009.6
20200401194441 72 38 3.0 9.0 0.00 0.00 0.00 47 1009.6
20200401193940 72 322 3.0 6.0 0.00 0.00 0.00 48 1009.7
20200401193442 72 26 3.0 9.0 0.00 0.00 0.00 48 1009.7
20200401192939 72 306 3.0 9.0 0.00 0.00 0.00 49 1009.8
20200401192441 72 45 3.0 9.0 0.00 0.00 0.00 48 1009.8
20200401191938 72 58 3.0 8.0 0.00 0.00 0.00 48 1009.9
20200401191437 71 19 4.0 9.0 0.00 0.00 0.00 49 1009.9
20200401190936 71 80 3.0 9.0 0.00 0.00 0.00 52 1009.9
20200401190436 70 61 3.0 6.0 0.00 0.00 0.00 50 1010.0
20200401185935 70 33 4.0 10.0 0.00 0.00 0.00 49 1010.1
20200401185433 70 34 3.0 10.0 0.00 0.00 0.00 50 1010.2
20200401184933 70 344 2.0 5.0 0.00 0.00 0.00 51 1010.2
20200401184433 70 22 2.0 6.0 0.00 0.00 0.00 51 1010.2
20200401183932 69 28 3.0 6.0 0.00 0.00 0.00 52 1010.3
20200401183431 69 14 3.0 8.0 0.00 0.00 0.00 53 1010.4
20200401182930 69 310 3.0 8.0 0.00 0.00 0.00 53 1010.4
20200401182430 69 96 3.0 7.0 0.00 0.00 0.00 53 1010.5
20200401181924 68 144 3.0 7.0 0.00 0.00 0.00 56 1010.5
20200401181425 68 319 2.0 5.0 0.00 0.00 0.00 56 1010.6
20200401180924 68 313 3.0 5.0 0.00 0.00 0.00 54 1010.7
20200401180424 68 304 3.0 7.0 0.00 0.00 0.00 55 1010.7
20200401175926 68 310 2.0 8.0 0.00 0.00 0.00 56 1010.8
20200401175426 68 309 2.0 8.0 0.00 0.00 0.00 59 1010.8
20200401174924 67 31 3.0 8.0 0.00 0.00 0.00 59 1010.8
20200401174421 67 5 3.0 8.0 0.00 0.00 0.00 59 1010.8
20200401173920 66 5 3.0 5.0 0.00 0.00 0.00 62 1010.8
20200401173420 66 32 3.0 5.0 0.00 0.00 0.00 61 1010.9
20200401172921 66 30 3.0 5.0 0.00 0.00 0.00 62 1011.0
20200401172423 66 19 3.0 5.0 0.00 0.00 0.00 62 1011.0
20200401171917 65 0 2.0 5.0 0.00 0.00 0.00 64 1011.0
20200401171417 65 5 2.0 5.0 0.00 0.00 0.00 65 1011.1
20200401170917 65 355 2.0 5.0 0.00 0.00 0.00 66 1011.0
20200401170416 65 355 2.0 5.0 0.00 0.00 0.00 66 1011.0
20200401165916 64 9 2.0 4.0 0.00 0.00 0.00 70 1011.0
20200401165418 64 5 2.0 4.0 0.00 0.00 0.00 70 1011.0
20200401164911 64 5 1.0 4.0 0.00 0.00 0.00 72 1011.0
20200401164410 63 5 2.0 5.0 0.00 0.00 0.00 72 1011.0
20200401163909 63 5 2.0 5.0 0.00 0.00 0.00 73 1011.0
20200401163400 62 55 2.0 5.0 0.00 0.00 0.00 74 1011.0
20200401162901 62 55 2.0 3.0 0.00 0.00 0.00 75 1011.0
20200401162400 62 55 2.0 4.0 0.00 0.00 0.00 77 1010.9
20200401161900 62 55 2.0 4.0 0.00 0.00 0.00 77 1010.8
20200401161357 61 55 2.0 4.0 0.00 0.00 0.00 78 1010.8
20200401160855 61 55 1.0 3.0 0.00 0.00 0.00 79 1010.7
20200401160355 60 55 2.0 3.0 0.00 0.00 0.00 80 1010.8
20200401155854 60 55 2.0 3.0 0.00 0.00 0.00 80 1010.8
20200401155353 60 55 1.0 3.0 0.00 0.00 0.00 80 1010.8
20200401154905 60 55 0.0 3.0 0.00 0.00 0.00 82 1010.9
20200401154347 59 55 0.0 0.0 0.00 0.00 0.00 84 1010.8
20200401153845 59 55 0.0 0.0 0.00 0.00 0.00 85 1010.7
20200401153342 58 55 0.0 0.0 0.00 0.00 0.00 87 1010.7
20200401152841 57 55 0.0 0.0 0.00 0.00 0.00 88 1010.6
20200401152342 57 55 0.0 0.0 0.00 0.00 0.00 89 1010.7
20200401151834 56 55 0.0 0.0 0.00 0.00 0.00 91 1010.6
20200401151333 56 55 0.0 0.0 0.00 0.00 0.00 91 1010.7
20200401150830 55 55 0.0 0.0 0.00 0.00 0.00 92 1010.6
20200401150329 55 55 0.0 0.0 0.00 0.00 0.00 92 1010.5
20200401145831 55 55 0.0 0.0 0.00 0.00 0.00 92 1010.5
20200401145326 55 55 0.0 0.0 0.00 0.00 0.00 92 1010.5
20200401144825 55 55 0.0 0.0 0.00 0.00 0.00 91 1010.4
20200401144325 55 55 0.0 0.0 0.00 0.00 0.00 91 1010.3
20200401143825 55 55 0.0 0.0 0.00 0.00 0.00 91 1010.3
20200401143323 54 55 0.0 0.0 0.00 0.00 0.00 91 1010.3
20200401142823 54 55 0.0 0.0 0.00 0.00 0.00 90 1010.2
20200401142317 54 55 0.0 0.0 0.00 0.00 0.00 90 1010.2
20200401141814 54 55 0.0 0.0 0.00 0.00 0.00 90 1010.1
20200401141312 54 55 0.0 0.0 0.00 0.00 0.00 89 1010.1
20200401140811 54 55 0.0 0.0 0.00 0.00 0.00 89 1010.1
20200401140310 54 55 0.0 0.0 0.00 0.00 0.00 89 1010.0
20200401135809 54 55 0.0 0.0 0.00 0.00 0.00 89 1010.0
20200401135307 54 55 0.0 0.0 0.00 0.00 0.00 89 1010.0
20200401134807 54 55 0.0 0.0 0.00 0.00 0.00 89 1009.9
20200401134306 53 55 0.0 0.0 0.00 0.00 0.00 90 1009.8
20200401133805 53 55 0.0 0.0 0.00 0.00 0.00 89 1009.8
20200401133305 53 55 0.0 0.0 0.00 0.00 0.00 87 1009.8
20200401132800 53 55 0.0 0.0 0.00 0.00 0.00 87 1009.7
20200401132259 53 55 0.0 0.0 0.00 0.00 0.00 87 1009.7
20200401131800 53 55 0.0 0.0 0.00 0.00 0.00 87 1009.6
20200401131259 53 55 0.0 0.0 0.00 0.00 0.00 86 1009.5
20200401130757 53 55 0.0 0.0 0.00 0.00 0.00 86 1009.5
20200401130259 53 55 0.0 0.0 0.00 0.00 0.00 86 1009.4
20200401125751 54 55 0.0 0.0 0.00 0.00 0.00 86 1009.5
20200401125249 54 55 0.0 0.0 0.00 0.00 0.00 86 1009.4
20200401124747 54 55 0.0 0.0 0.00 0.00 0.00 86 1009.4
20200401124245 54 55 0.0 0.0 0.00 0.00 0.00 85 1009.4
20200401123748 54 55 0.0 0.0 0.00 0.00 0.00 85 1009.4
20200401123240 54 55 0.0 0.0 0.00 0.00 0.00 84 1009.4
20200401122737 54 55 0.0 0.0 0.00 0.00 0.00 84 1009.3
20200401122235 54 55 0.0 0.0 0.00 0.00 0.00 84 1009.4
20200401121734 54 55 0.0 0.0 0.00 0.00 0.00 84 1009.4
20200401121236 54 55 0.0 0.0 0.00 0.00 0.00 83 1009.4
20200401120727 54 55 0.0 0.0 0.00 0.00 0.00 83 1009.3
20200401120225 54 55 0.0 0.0 0.00 0.00 0.00 82 1009.3
20200401115724 54 55 0.0 0.0 0.00 0.00 0.00 82 1009.3
20200401115222 54 55 1.0 2.0 0.00 0.00 0.00 82 1009.3
20200401114724 54 55 1.0 2.0 0.00 0.00 0.00 81 1009.3
20200401114219 54 55 1.0 2.0 0.00 0.00 0.00 81 1009.3
20200401113716 54 55 0.0 2.0 0.00 0.00 0.00 81 1009.4
20200401113217 55 55 0.0 1.0 0.00 0.00 0.00 81 1009.4
20200401112715 55 55 0.0 2.0 0.00 0.00 0.00 80 1009.4
20200401112215 55 55 1.0 2.0 0.00 0.00 0.00 80 1009.4
20200401111712 55 55 0.0 2.0 0.00 0.00 0.00 80 1009.5
20200401111211 55 55 0.0 1.0 0.00 0.00 0.00 80 1009.5
20200401110710 55 55 0.0 1.0 0.00 0.00 0.00 80 1009.5
20200401110208 55 55 1.0 2.0 0.00 0.00 0.00 80 1009.5
20200401105706 55 55 0.0 2.0 0.00 0.00 0.00 79 1009.5
20200401105207 55 55 0.0 0.0 0.00 0.00 0.00 79 1009.6
20200401104705 55 55 0.0 0.0 0.00 0.00 0.00 79 1009.6
20200401104204 55 55 0.0 1.0 0.00 0.00 0.00 78 1009.7